NILESAT 301

导读 | 星芒AI

NILESAT 301 是埃及国家卫星公司(NILESAT)运营的一颗通信卫星,于2012年发射,旨在增强非洲和中东地区的通信服务。该卫星位于东经44.5度轨道位置,提供固定卫星服务(FSS)和广播服务,支持电视、互联网和数据传输等应用。NILESAT 301 采用EUTELSAT的卫星平台,提升了埃及在区域通信市场中的竞争力,并促进了当地数字基础设施的发展。

基本信息
目录编号:
52817
目录名称:
NILESAT 301
国际标识:
2022-061A
轨道中心:
EARTH
卫星名称:
NILESAT 301
卫星全名:
--
卫星状态:
在轨 (已飞行1284 天)
发射日期:
2022-06-08 UTC
国别 :
埃及 (EG)
星等 :
--
轨道信息
数据来源 国际轨道数据 AOE轨道数据
星历时间 2025-12-13T07:43:13+0800
10小时前
查看轨道信息
2025-12-11T07:00:00+0800
2天前
查看轨道信息
半长轴 42164.784km 42164.476km
偏心率 0.0004413 0.000381
轨道倾角 0.043° 0.044°
近地点辐角 300.948° 288.040°
升交点赤经 352.485° 347.061°
平近点角 137.293° 142.839°
近地点 35768.041km 35770.276km
远地点 35805.257km 35802.406km
周期 1436.100分钟 1436.084分钟
每日圈数 1.002716 1.002727
详细信息
使用方式:
暂无
2D轨道图
3D轨道图
轨道高度分析图
轨道倾角分析图
轨道综合分析图
查看轨道综合分析图